Flag for Germany Weather past 2 weeks in Lüneburg, Lower Saxony, Germany

Now
34 °F

Chilly.


Feels Like: 26 °F
Forecast: 27 / 33 °F
Wind: 9 mph from Northwest

Location: Fassberg

Current Time: Dec 26, 2014 at 12:36:01 AM

Latest Report: Dec 25, 2014 at 11:20 PM


Visibility: N/A

Pressure: 30.27 "Hg

Humidity: 87%

Dew point: 30 °F

Location of LüneburgLocation

Historic Weather in Lüneburg — Graph

°F

Lüneburg temperature yesterday

Maximum temperature yesterday: 43 °F (at 11:20 AM)
Minimum temperature yesterday: 32 °F (at 7:20 PM)
Average temperature yesterday: 39 °F

Past Weeks' High & Low Weather Summary

 TemperatureHumidityPressure
High54 °F (Dec 18, 8:20 PM)100% (Dec 14, 12:20 AM)30.27 "Hg (Dec 14, 12:20 AM)
Low32 °F (Dec 14, 11:20 PM)61% (Dec 25, 3:20 PM)29.27 "Hg (Dec 12, 2:20 PM)
Average42 °F89%29.80 "Hg
* Reported Dec 10 11:20 PM — Dec 25 11:20 PM, Lüneburg, Weather by CustomWeather, © 2014

Note: Actual official high and low records may vary slightly from our data, if they occured in-between our weather recording intervals... More about our weather records

Advertising

Lüneburg weather history for previous 24 hours

 ConditionsComfort  
Time TempWeatherWind HumidityBarometerVisibility
11:20 PM
Dec 25
34 °FChilly.9 mph87%30.27 "HgN/A
10:20 PM34 °FChilly.6 mph93%30.24 "HgN/A
9:20 PM34 °FChilly.9 mph93%30.21 "HgN/A
8:20 PM32 °FChilly.10 mph100%30.18 "Hg2 mi
7:20 PM32 °FChilly.10 mph100%30.15 "Hg1 mi
6:20 PM36 °FChilly.17 mph87%30.09 "Hg4 mi
5:20 PM37 °FChilly.20 mph87%30.04 "Hg3 mi
4:20 PM39 °FChilly.20 mph81%30.01 "HgN/A
3:20 PM43 °FQuite cool.20 mph61%29.98 "HgN/A
2:20 PM43 °FQuite cool.15 mph66%29.98 "HgN/A
1:20 PM43 °FQuite cool.17 mph71%29.98 "HgN/A
12:20 PM43 °FQuite cool.17 mph71%29.98 "HgN/A
11:20 AM43 °FQuite cool.16 mph81%29.98 "Hg6 mi
10:20 AM41 °FQuite cool.16 mph87%29.95 "HgN/A
9:20 AM41 °FQuite cool.16 mph87%29.92 "HgN/A
8:20 AM41 °FQuite cool.18 mph81%29.92 "HgN/A
7:20 AM41 °FQuite cool.17 mph81%29.92 "HgN/A
6:20 AM41 °FQuite cool.21 mph81%29.92 "Hg2 mi
5:20 AM39 °FChilly.17 mph87%29.92 "HgN/A
4:20 AM39 °FChilly.16 mph87%29.95 "HgN/A
3:20 AM39 °FChilly.14 mph81%29.95 "HgN/A
2:20 AM37 °FChilly.15 mph93%29.95 "HgN/A
1:20 AM37 °FChilly.14 mph93%29.95 "HgN/A
12:20 AM39 °FChilly.12 mph87%29.95 "HgN/A
Weather by CustomWeather, © 2014

See weather overviewHow to use our weather pages